Regional Weather Roundup
Issued by NWS Sterling, VA

Home | Current Version | Previous Version | Text Only | Print | Product List | Glossary On
Versions: 1 2 3 4 5 6 7 8 9 10 11 12 13 14 15 16 17 18 19 20 21 22 23 24 25 26 27 28 29 30 31 32 33 34 35 36 37 38 39 40 41 42 43 44 45 46 47 48 49 50
000
ASUS41 KLWX 121910
RWRLWX

REGIONAL WEATHER ROUNDUP
NATIONAL WEATHER SERVICE BALTIMORE MD/WASHINGTON DC
200 PM EST FRI FEB 12 2016

Note: "FAIR" indicates few or no clouds below 12,000 feet
with no significant weather and/or obstructions to visibility.
 TC=TEMPERATURE CELSIUS

 * =Non NWS site. Station does not report precipitation (e.g. rain,
    snow, etc.), thunder, or fog.

DCZ001-MDZ009-015-VAZ040>042-051-053>054-122000-
WASHINGTON METRO

CITY           SKY/WX    TMP DP  RH WIND       PRES   REMARKS
WASHINGTON NAT CLOUDY    30   9  41 S13G20    30.12F WCI  20
DULLES         CLOUDY    29   6  38 VRB7      30.09F
ANDREWS AFB    MOSUNNY   29   6  38 VRB6      30.09F
FT BELVOIR     CLOUDY    30   6  36 SW7       30.11F
QUANTICO       CLOUDY    31  12  45 S12       30.13F WCI  22
COLLEGE PARK*  PTSUNNY   30   7  37 SW5       30.10F
LEESBURG*      CLOUDY    32  12  43 S8        30.08F WCI  25
MANASSAS*      MOSUNNY   30  10  43 S8        30.11F WCI  23
GAITHERSBURG*  MOSUNNY   28   7  40 S5        30.11F

$$

MDZ006>007-011-014-122000-
BALTIMORE METRO

CITY           SKY/WX    TMP DP  RH WIND       PRES   REMARKS
BWI AIRPORT    PTSUNNY   28   3  34 SW5       30.10F
MD SCIENCE CTR   N/A     27   8  44 MISG      30.12F
MARTIN STATE   CLOUDY    27  10  50 SE10      30.15F WCI  17
ANNAPOLIS      MOSUNNY   26  11  52 SE12      30.12F WCI  16
FORT MEADE*    PTSUNNY   30   5  34 SW9       30.12F WCI  22

$$

MDZ012-015-019>023-122000-
MARYLAND EASTERN SHORE

CITY           SKY/WX    TMP DP  RH WIND       PRES   REMARKS
OCEAN CITY     PTSUNNY   26   7  44 S6        30.15F
SALISBURY      PTSUNNY   29   5  36 W5        30.13F
BAY BRIDGE AP*   N/A     28   3  34 CALM      30.12F
CAMBRIDGE*     MOSUNNY   28   9  43 CALM      30.12F

$$

MDZ017>025-122000-
SOUTHERN MARYLAND

CITY           SKY/WX    TMP DP  RH WIND       PRES   REMARKS
PATUXENT RIVER CLOUDY    28   8  43 E10       30.14F WCI  19
ST INIGOES     CLOUDY    29   9  43 VRB6      30.13F
LEONARDTOWN*   PTSUNNY   28   7  40 S5        30.13F

$$

MDZ003>005-122000-
NORTH CENTRAL MARYLAND

CITY           SKY/WX    TMP DP  RH WIND       PRES   REMARKS
FREDERICK*     CLOUDY    27  12  54 SW10      30.12F WCI  17
HAGERSTOWN APT CLOUDY    25   5  42 VRB5      30.05F
WESTMINSTER*   CLOUDY    25  12  58 W8        30.05F WCI  16

$$

MDZ501>502-122000-
WESTERN MARYLAND

CITY           SKY/WX    TMP DP  RH WIND       PRES   REMARKS
OAKLAND*       FOG       14  10  85 W8        29.87F VSB 3/4 WCI   3
CUMBERLAND*    CLOUDY    27  14  59 SE3       30.07F

$$

VAZ025>031-122000-
SHENANDOAH VALLEY

CITY           SKY/WX    TMP DP  RH WIND       PRES   REMARKS
WINCHESTER*    CLOUDY    30   9  40 SE5       30.03F
FRONT ROYAL*   CLOUDY    32   9  37 S5        30.01F
LURAY*         CLOUDY    32  10  40 S10       29.99F WCI  24
NEW MARKET*    CLOUDY    32  11  41 S10G17    29.99F WCI  24
STAUNTON*      CLOUDY    35  11  37 S9        30.00F WCI  28
WAYNESBORO*    CLOUDY    31   6  34 S3        29.98F

$$

WVZ021-048>050-054>055-122000-
EASTERN WEST VIRGINIA PANHANDLE

CITY           SKY/WX    TMP DP  RH WIND       PRES   REMARKS
MARTINSBURG    CLOUDY    28   6  39 S6        30.05F
PETERSBURG*    CLOUDY    30  13  48 CALM      29.99F

$$

VAZ036>039-050-122000-
CENTRAL FOOTHILLS

CITY           SKY/WX    TMP DP  RH WIND       PRES   REMARKS
CHARLOTTESVILL PTSUNNY   31   6  35 S8        30.06F WCI  23
CULPEPER*      CLOUDY    29   7  38 S6        30.09F
ORANGE*        CLOUDY    32   7  34 S9        30.09F WCI  24
GORDONSVILLE*  CLOUDY    30   7  37 S8G16     30.07F WCI  23
WARRENTON*     CLOUDY    31  11  44 S8        30.08F WCI  24

$$

VAZ055>057-122000-
NORTH AND CENTRAL PIEDMONT

CITY           SKY/WX    TMP DP  RH WIND       PRES   REMARKS
FREDERICKSBRG* FAIR      29   8  41 SW8       30.11F WCI  21
STAFFORD*      CLOUDY    29   5  36 S9        30.14F WCI  21

$$

NCZ024-NYZ072-PAZ021-071-VAZ022-071-122000-
OTHER REGIONAL OBSERVATIONS

CITY           SKY/WX    TMP DP  RH WIND       PRES   REMARKS
NEW YORK CITY  MOSUNNY   25  -1  32 VRB6      30.11F
PHILADELPHIA   CLOUDY    25   0  33 SW10G18   30.13F WCI  15
PITTSBURGH     CLOUDY    20   5  52 SW9       29.99F WCI   9
ROANOKE        CLOUDY    30  14  51 SE9       30.05F WCI  22
RICHMOND       CLOUDY    27   7  42 S7        30.13F
RALEIGH        FLURRIES  28  19  69 CALM      30.10F

$$

ANZ530>537-122000-
MARINE OBSERVATIONS

STATION/POSITION TIME  TEMP    WIND        PRES
                       AIR SEA DIR/SP/G
                 (UTC) (F)     (DEG/KT/KT) (MB)
THOMAS PT LIGHT  1900   24 36  150/  6/  7 1020.7F
BALT KEY BRIDGE  1800   23      90/  9/ 11 1021.6F
COVE POINT       1800   23     150/  7/ 10 1022.5F
LEWISETTA        1800   25 38  100/  5/  6 1021.7F
SOLOMONS ISLAND  1800   26 40  140/  6/  8   N/A
PINEY POINT      1800          130/  5/  6   N/A

$$




USA.gov is the U.S. government's official web portal to all federal, state and local government web resources and services.